CZ-6A DEB

Satellite information

Favourite Embed

Satellite Type and Status

DEBRISIN ORBIT

Key statistics

Satellite CZ-6A DEB at a glance.

Uptime

494

Days in orbit

Revolutions

≈ 14.5

Per day

Orbit

LEO

Low Earth Orbit

Inclination

88.9

Latest

Satellite identification and parameters

Extended collection of information and parameters for CZ-6A DEB.

Object identification

Identified? True

Debris? True

Object name: CZ-6A DEB

International designator: 2024-140GV

Object number (NORAD): 60818

Object ID (CCSDS): 60818

Country: PEOPLES REPUBLIC OF CHINA (PRC)

Current information (Y/N): Y

RCS size: MEDIUM

Orbital parameters

Period: 99.592 minutes

Inclination: 88.8886 deg

SMA: 7117.205 km

Apoapsis: 766.032 km

Periapsis: 712.108 km

RAAN: 287.0663 deg

Eccentricy: 0.00378825

Argument of periapsis: 188.5278 deg

Mean anomaly: 171.5288 deg

Mean motion: 14.45900964 rev/day

Mean motion (dot): 0.00008029 rev/day2

B* drag term: 0.0022342438 1/REarth

Two-line elements (TLE)

Creation date: Dec. 12, 2025, 10:14 a.m.

Reference frame: TEME

Reference center: EARTH

Epoch: Dec. 12, 2025, 6:50 a.m. UTC

TLE line 0: 0 CZ-6A DEB

TLE line 1: 1 60818U 24140GV 25346.28509478 .00008029 00000-0 22342-2 0 9991

TLE line 2: 2 60818 88.8886 287.0663 0037882 188.5278 171.5288 14.45900964 70180

Live tracking on map

Real-time ground track for satellite CZ-6A DEB.

In-orbit conjunctions

A list of the most updated potential collisions computed for object CZ-6A DEB.

Target Orbit TCA Probability of collision Miss distance Type
COSMOS 2251 DEB LEO 2025-07-17 18:40:58 0.0001552404 391.0 (m) DEBRIS
CZ-6A DEB SSO 2025-02-01 22:51:38 0.001705399 79.0 (m) DEBRIS
MINOTAUR DEB SSO 2024-11-14 06:07:12 0.0008579661 265.0 (m) DEBRIS
FENGYUN 1C DEB SSO 2024-11-09 13:27:57 0.0001610175 620.0 (m) DEBRIS
IRIDIUM 33 DEB LEO 2024-10-31 06:54:23 0.0001303955 393.0 (m) DEBRIS

Associated space launch

18 Low Earth Orbit communication satellites with Ku, Q and V band payloads for the G60 constellation operated by Shanghai Spacecom Satellite Technology (SSST) with funding backed by the Shanghai local government. Initial constellation will consist of 1296 satellites by 2027 with long term plans to expand it to 12000 satellites.

CZ-6A DEB was lifted into orbit during the mission ‘Long March 6A | G60 Polar Group 01’, on board a Long March 6A space rocket.

The launch took place on Aug. 6, 2024, 6:42 a.m. from Launch Complex 9A.

For more information about the launch, click the button.

Launch to space Long March 6A | G60 Polar Group 01
Long March 6A | G60 Polar Group 01

Agency: N/A

Status: Launch Successful

Launch date: Aug. 6, 2024, 6:42 a.m. UTC

Rocket: Long March 6A

Launch pad: Launch Complex 9A

Location: Taiyuan Satellite Launch Center, People's Republic of China

...

Latest news about this satellite

News about space launch
Brightness of first Chinese broadband constellation satellites alarms astronomers

The first satellites of a Chinese broadband constellation are significantly brighter than those of Western systems, posing a new challenge for astronomers.

News about space launch
Chinese rocket stage breaks up into cloud of more than 700 pieces of space debris

HELSINKI — A Chinese Long March 6A rocket’s upper stage has fragmented into a cloud of over 700 pieces of space debris, adding to concerns about long-term orbital safety. China […]

News about space launch
China's Thousand Sails Megaconstellation Kicks Off with Dangerous Debris Field

China's Thousand Sails Megaconstellation Kicks Off with Dangerous Debris Field


Newsletter sign-up

Weekly statistics, charts and insights to help you stay on top of the space industry.